Location: Mountain View
(37.3861°N, 122.0839°W)
Time: 15:26:44
(UTC-07:00)

Tiangong 2 - Visible Passes

Search period start: 24 April 2019 00:00
Search period end: 04 May 2019 00:00
Orbit: 378 x 390 km, 42.8° (Epoch: 24 April)

Date Brightness Start Highest point End Pass type
(mag) Time Alt. Az. Time Alt. Az. Time Alt. Az.
30 Apr 3.1 05:41:23 10° SSW 05:43:51 21° SE 05:46:20 10° E visible
01 May 3.7 04:43:12 10° SSE 04:44:13 11° SE 04:45:15 10° ESE visible
02 May 2.0 05:18:22 14° SW 05:20:44 39° SSE 05:23:43 10° E visible
03 May 3.0 04:21:15 20° SE 04:21:15 20° SE 04:23:28 10° E visible
